Home   Weather   Clarksville   Past weeks

Flag for USA Past Weather in Clarksville, Tennessee, USA — Yesterday and Last 2 Weeks

Now
47 °F

Scattered clouds.


Feels Like: 44 °F
Forecast: 43 / 60 °F
Wind: 6 mph from South

Location: Outlaw Field

Current Time: Feb 27, 2017 at 8:06:00 am

Latest Report: Feb 27, 2017 at 6:52 am


Visibility: 10 mi

Pressure: 30.15 "Hg

Humidity: 86%

Dew Point: 43 °F

Location of ClarksvilleLocation

Past Weather in Clarksville — Graph

°F

Clarksville Temperature Yesterday

Maximum temperature yesterday: 55 °F (at 3:52 pm)
Minimum temperature yesterday: 22 °F (at 5:52 am)
Average temperature yesterday: 41 °F

High & Low Weather Summary for the Past Weeks

 TemperatureHumidityPressure
High80 °F (Feb 24, 12:52 pm)97% (Feb 19, 1:27 am)30.39 "Hg (Feb 19, 1:27 am)
Low22 °F (Feb 26, 5:52 am)20% (Feb 26, 4:52 pm)29.56 "Hg (Feb 24, 2:52 pm)
Average52 °F65%29.98 "Hg
* Reported Feb 12 6:52 am — Feb 27 6:52 am, Clarksville, Weather by CustomWeather, © 2017

Note: Actual official high and low records may vary slightly from our data, if they occured in-between our weather recording intervals... More about our weather records

Advertising

Clarksville Weather History for the Previous 24 Hours

Scroll right to see more
 ConditionsComfort  
Time TempWeatherWind HumidityBarometerVisibility
6:52 am
Mon, Feb 27
47 °FScattered clouds.6 mph86%30.15 "Hg10 mi
5:52 am46 °FLight rain. Partly sunny.No wind86%30.15 "Hg10 mi
4:52 am45 °FLight rain. Overcast.7 mph90%30.18 "Hg7 mi
3:52 am45 °FLight rain. Overcast.7 mph86%30.17 "Hg10 mi
2:52 am45 °FLight rain. Overcast.5 mph86%30.18 "Hg10 mi
1:52 am47 °FLight rain. Overcast.5 mph74%30.19 "Hg10 mi
12:52 am50 °FMostly cloudy.8 mph48%30.19 "Hg10 mi
11:52 pm
Sun, Feb 26
49 °FMostly cloudy.6 mph43%30.18 "Hg10 mi
10:52 pm48 °FOvercast.No wind37%30.18 "Hg10 mi
9:52 pm48 °FMostly cloudy.3 mph36%30.17 "Hg10 mi
8:52 pm47 °FOvercast.5 mph37%30.15 "Hg10 mi
7:52 pm45 °FPassing clouds.8 mph42%30.13 "Hg10 mi
6:52 pm44 °FClear.5 mph35%30.14 "Hg10 mi
5:52 pm50 °FClear.3 mph26%30.14 "Hg10 mi
4:52 pm54 °FPassing clouds.7 mph20%30.12 "Hg10 mi
3:52 pm55 °FSunny.7 mph22%30.12 "Hg10 mi
2:52 pm54 °FSunny.9 mph22%30.14 "Hg10 mi
1:52 pm53 °FSunny.10 mph23%30.15 "Hg10 mi
12:52 pm50 °FSunny.5 mph27%30.19 "Hg10 mi
11:52 am48 °FSunny.10 mph28%30.21 "Hg10 mi
10:52 am45 °FSunny.8 mph34%30.24 "Hg10 mi
9:52 am41 °FSunny.6 mph43%30.24 "Hg10 mi
8:52 am38 °FSunny.7 mph53%30.24 "Hg10 mi
Weather by CustomWeather, © 2017

See weather overviewHow to use our weather pages